User: anonymous   Login
Location: Unspecified
(0.0000°N, 0.0000°E)
Time: 22:57:03
(UTC+02:00)
Language:

ARIANE 5 R/B - Orbit

View from above orbital plane
View from above orbital plane
View from above satellite
View from above satellite

Ground track
Ground track

The orbit data is extracted from the following two-line orbital elements,

1 27510U 02040C   15116.24983332 -.00000041  00000-0  75788-3 0  9993
2 27510 004.7359 151.7977 7170425 097.0009 356.2915 02.27184892105104
Epoch (UTC): 26 April 2015 05:59:45
Eccentricity: 0.7170425
inclination: 4.7359°
perigee height: 538 km
apogee height: 35590 km
right ascension of ascending node: 151.7977°
argument of perigee: 97.0009°
revolutions per day: 2.27184892
mean anomaly at epoch: 356.2915°
orbit number at epoch: 10510

The dashed part of the orbit path shows where the satellite is in the earth's shadow,  

DLR